Location: Earls Croome
(52.0667°N, 2.2000°W)
Time: 08:29:59
(UTC+00:00)

Cosmos 1408 - Pass Details

Date: 17 November 2019
Orbit: 470 x 496 km, 82.6° (Epoch: 13 December)

Event Time Altitude Azimuth Distance (km) Brightness Sun altitude
Rises 06:43:47 0° 225° (SW) 2,568 6.0 -7.5°
Reaches altitude 10° 06:46:18 10° 243° (WSW) 1,687 4.9 -7.1°
Maximum altitude 06:49:07 20° 293° (WNW) 1,177 3.9 -6.7°
Drops below altitude 10° 06:51:56 10° 343° (NNW) 1,686 4.9 -6.3°
Sets 06:54:27 0° 0° (N) 2,567 6.0 -5.9°
